Probability
0 0 0 0 0 0 0 0 0 0 0 0 0 0 0 0 0 0 0 0 0 0 0 0 0 0 0 0 0 0 0 0 0 0 0 0 0 0 0 0 0 0 0 0
0 0 0 0 0 0 0 0 0 0 0 0 0 0 0 0 0 0 0 0 0 0 0 0 0 0 0 0 0 0 0 0 0 0 0 0 0 0 0 0 0 0 0 0
0 0 0 0 0 0 0 0 0 0 0 0 0 0 0 0 0 0 0 0 0 0 0 0 0 0 0 0 0 0 0 0 0 0 0 0 0 0 0 0 0 0 0 0
0 0 0 0 0 0 0 0 0 0 0 0 0 0 0 0 0 0 0 0 0 0 0 0 0 0 0 0 0 0 0 0 0 0 0 0 0 0 0 0 0 0 0 0
0 0 0 0 0 0 0 0 0 0 0 0 0 0 0 0 0 0 0 0 0 0 0 0 0 0 0 0 0 0 0 0 0 0 0 0 0 0 0 0 0 0 0 0
0 0 0 0 0 0 0 0 0 0 0 0 0 0 0 0 0 0 0 0 0 0 0 0 0 0 0 0 0 0 0 0 0 0 0 0 0 0 0 0 0 0 0 0
0 0 0 0 0 0 0 0 0 0 0 0 0 0 0 0 0 0 0 0 0 0 0 0 0 0 0 0 0 0 0 0 0 0 0 0 0 0 0 0 0 0 0 0
0 0 0 0 0 0 0 0 0 0 0 0 0 0 0 0 0 0 0 0 0 0 0 0 0 0 0 0 0 0 0 0 0 0 0 0 0 0 0 0 0 0 0 0
0 0 0 0 0 0 0 0 0 0 0 0 0 0 0 0 0 0 0 0 0 0 0 0 0 0 0 0 0 0 0 0 0 0 0 0 0 0 0 0 0 0 0 0
0 0 0 0 0 0 0 0 0 0 0 0 0 0 0 0 0 0 0 0 0 0 0 0 0 0 0 0 0 0 0 0 0 0 0 0 0 0 0 0 0 0 0 0
0 0 0 0 0 0 0 0 0 0 0 0 0 0 0 0 0 0 0 0 0 0 0 0 0 0 0 0 0 0 0 0 0 0 0 0 0 0 0 0 0 0 0 0
0 0 0 0 0 0 0 0 0 0 0 0 0 0 0 0 0 0 0 0 0 0 0 0 0 0 0 0 0 0 0 0 0 0 0 0 0 0 0 0 0 0 0 0
0 0 0 0 0 0 0 0 0 0 0 0 0 0 0 0 0 0 0 0 0 0 0 0 0 0 0 0 0 0 0 0 0 0 0 0 0 0 0 0 0 0 0 0
0 0 0 0 0 0 0 0 0 0 0 0 0 0 0 0 0 0 0 0 0 0 0 0 0 0 0 0 0 0 0 0 0 0 0 0 0 0 0 0 0 0 0 0
0 0 0 0 0 0 0 0 0 0 0 0 0 0 0 0 0 0 0 0 0 0 0 0 0 0 0 0 0 0 0 0 0 0 0 0 0 0 0 0 0 0 0 0
0 0 0 0 0 0 0 0 0 0 0 0 0 0 0 0 0 0 0 0 0 0 0 0 0 0 0 0 0 0 0 0 0 0 0 0 0 0 0 0 0 0 0 0
0 0 0 0 0 0 0 0 0 0 0 0 0 0 0 0 0 0 0 0 0 0 0 0 0 0 0 0 0 0 0 0 0 0 0 0 0 0 0 0 0 0 0 0
0 0 0 0 0 0 0 0 0 0 0 0 0 0 0 0 0 0 0 0 0 0 0 0 0 0 0 0 0 0 0 0 0 0 0 0 0 0 0 0 0 0 0 0
0 0 0 0 0 0 0 0 0 0 0 0 0 0 0 0 0 0 0 0 0 0 0 0 0 0 0 0 0 0 0 0 0 0 0 0 0 0 0 0 0 0 0 0
0 0 0 0 0 0 0 0 0 0 0 0 0 0 0 0 0 0 0 0 0 0 0 0 0 0 0 0 0 0 0 0 0 0 0 0 0 0 0 0 0 0 0 0
0 0 0 0 0 0 0 0 0 0 0 0 0 0 0 0 0 0 0 0 0 0 0 0 0 0 0 0 0 0 0 0 0 0 0 0 0 0 0 0 0 0 0 0
0 0 0 0 0 0 0 0 0 0 0 0 0 0 0 0 0 0 0 0 0 0 0 0 0 0 0 0 0 0 0 0 0 0 0 0 0 0 0 0 0 0 0 0
0 0 0 0 0 0 0 0 0 0 0 0 0 0 0 0 0 0 0 0 0 0 0 0 0 0 0 0 0 0 0 0 0 0 0 0 0 0 0 0 0 0 0 0
0 0 0 0 0 0 0 0 0 0 0 0 0 0 0 0 0 0 0 0 0 0 0 0 0 0 0 0 0 0 0 0 0 0 0 0 0 0 0 0 0 0 0 0
0 0 0 0 0 0 0 0 0 0 0 0 0 0 0 0 0 0 0 0 0 0 0 0 0 0 0 0 0 0 0 0 0 0 0 0 0 0 0 0 0 0 0 0
0 0 0 0 0 0 0 0 0 0 0 0 0 0 0 0 0 0 0 0 0 0 0 0 0 0 0 0 0 0 0 0 0 0 0 0 0 0 0 0 0 0 0 0
0 0 0 0 0 0 0 0 0 0 0 0 0 0 0 0 0 0 0 0 0 0 0 0 0 0 0 0 0 0 0 0 0 0 0 0 0 0 0 0 0 0 0 0
Wind_Speed
2 3 2 4 7 6 4 2 0 2 2 4 8 9 9 9 10 11 11 11 11 10 9 9 9 8 6 5 4 3 3 2 1 1 1 2 2 2 2 3 3 3 3 3
3 2 2 5 9 7 5 4 3 4 3 5 7 7 8 9 10 11 12 12 11 11 10 10 9 8 8 6 5 3 2 2 2 1 1 1 2 2 2 3 3 3 3 3
3 4 2 3 5 5 3 4 3 3 5 8 9 10 9 9 10 10 11 12 12 11 10 9 9 8 7 7 5 3 2 2 2 1 0 1 1 2 2 3 3 3 3 3
2 3 1 2 2 3 2 3 5 5 7 7 8 9 6 6 8 10 11 11 11 10 10 9 8 8 7 6 5 4 3 3 2 1 0 1 1 2 2 2 3 3 2 2
1 1 3 3 4 4 3 4 5 7 9 9 9 7 4 7 9 9 10 10 10 9 9 9 8 8 7 6 4 4 4 3 3 2 0 1 1 1 1 2 2 2 2 2
2 0 2 4 7 7 1 3 6 8 9 9 9 6 6 10 12 11 11 10 9 9 8 8 8 7 6 6 5 4 4 4 3 2 1 1 1 0 0 1 2 2 1 1
1 1 4 4 8 5 2 5 8 7 7 7 5 5 9 11 11 10 10 10 10 8 7 7 7 6 6 6 5 5 4 4 3 3 2 1 0 0 1 1 2 2 1 1
1 1 4 5 4 2 3 5 6 6 7 7 8 9 9 10 11 11 11 11 10 9 8 7 7 6 6 7 6 5 4 4 3 3 2 1 1 0 1 2 2 2 1 1
3 4 3 2 1 2 3 4 5 6 7 7 8 9 10 10 10 10 10 10 9 8 8 7 7 6 6 7 6 5 4 3 3 3 2 2 1 0 1 1 2 1 1 1
3 4 4 4 2 4 4 4 6 6 6 7 8 9 10 9 9 9 9 9 8 8 8 8 8 7 6 6 5 4 4 3 3 2 2 2 1 1 0 1 1 1 1 1
3 5 5 3 4 5 5 5 6 6 6 6 7 8 9 9 9 9 9 8 7 7 8 8 8 8 7 6 5 4 4 3 3 2 2 2 2 2 1 1 1 1 1 1
5 4 4 6 5 5 5 6 6 7 8 7 6 8 8 8 8 8 8 8 8 8 8 8 7 7 7 6 5 4 3 3 2 2 1 1 2 3 4 3 3 3 2 1
5 4 4 5 4 4 4 5 6 6 6 8 7 7 7 7 7 8 8 8 8 8 8 7 7 7 7 6 6 4 3 3 2 2 2 2 2 1 2 4 5 4 4 3
3 3 3 4 5 5 5 6 5 5 6 6 6 7 7 7 7 8 8 8 8 7 7 7 7 7 7 6 6 5 4 4 3 2 2 1 1 1 1 1 2 3 4 4
3 3 4 5 5 5 5 5 6 6 6 6 6 6 7 8 8 8 8 8 7 7 7 7 7 7 7 6 6 5 4 3 2 2 2 2 1 1 1 1 1 2 2 3
5 4 3 4 5 5 5 5 6 7 6 6 6 7 7 7 7 7 7 7 7 7 8 7 7 7 7 6 5 4 3 5 4 3 2 2 2 1 1 1 1 1 2 2
3 4 4 5 6 6 5 5 5 6 6 6 7 7 7 7 7 7 8 7 6 6 6 7 8 8 7 6 5 3 3 4 5 3 2 2 2 2 1 1 1 1 2 2
4 5 4 5 5 6 6 6 5 6 5 6 6 6 6 6 7 8 8 8 7 6 7 7 7 7 6 6 4 3 3 3 3 2 2 2 2 1 1 1 1 2 2 3
3 4 4 5 4 4 4 5 5 5 5 5 5 6 6 6 7 7 7 7 7 7 8 8 11 8 6 7 6 3 3 3 3 3 2 3 3 2 2 2 2 2 2 2
4 4 4 4 4 4 4 4 5 5 5 5 5 5 6 6 6 7 6 6 5 5 7 8 7 6 6 6 6 3 3 3 2 2 2 2 2 2 2 2 2 2 2 2
4 4 4 5 5 4 4 4 4 5 5 5 5 5 6 6 6 5 5 6 6 7 7 9 6 5 5 5 5 3 2 2 2 2 2 2 2 2 2 2 2 2 2 2
4 4 4 4 4 5 4 4 4 4 5 5 5 5 5 6 6 6 5 4 6 10 8 5 4 7 8 7 3 2 2 3 2 2 2 2 2 2 2 2 2 2 2 2
4 4 4 4 4 5 5 4 4 4 4 5 6 6 5 5 4 5 6 5 5 10 8 5 8 11 11 5 3 3 3 3 3 3 2 2 2 2 2 2 2 2 2 2
3 3 4 4 3 3 4 5 4 4 4 5 5 5 5 5 4 3 4 9 12 12 6 8 13 12 10 4 3 3 3 3 3 3 3 2 2 2 2 2 3 3 3 3
3 3 3 3 3 3 4 5 5 4 4 4 5 5 4 3 4 5 5 6 10 10 6 8 12 11 6 3 3 3 3 3 3 3 3 3 2 3 3 3 3 3 3 3
3 3 3 3 3 3 3 3 3 4 4 5 5 4 4 3 4 4 4 5 7 9 6 5 6 7 5 4 4 4 3 4 4 4 3 3 3 3 3 3 4 3 3 3
3 3 3 3 3 3 3 3 4 4 4 5 5 5 5 4 4 4 5 5 5 5 5 5 4 4 4 4 4 4 4 3 4 4 3 3 3 3 3 4 3 3 3 3
Wind_Direction
265 295 345 6 1 8 25 14 273 305 321 339 344 340 344 352 355 359 1 1 1 359 354 351 350 350 351 355 358 2 10 6 300 222 179 165 166 162 158 161 169 176 174 175
294 319 25 31 10 5 9 3 347 348 338 341 335 345 352 355 357 357 354 352 352 353 351 348 345 342 342 342 345 350 355 347 347 5 137 153 167 165 157 161 160 161 172 178
292 312 9 10 358 2 9 14 5 342 318 335 340 344 342 345 352 350 347 346 344 341 338 337 336 335 335 331 335 345 347 347 354 1 101 137 156 155 165 171 160 164 176 176
308 11 318 247 353 355 349 17 15 348 339 341 331 319 320 344 350 345 342 340 335 332 332 332 331 331 331 334 341 347 353 349 350 344 43 85 123 156 160 159 163 168 175 180
36 348 285 314 349 354 318 317 5 348 340 338 334 329 338 358 353 339 332 328 326 326 325 327 330 331 336 340 341 346 346 342 332 321 252 139 133 157 157 151 150 163 172 172
79 65 276 296 318 318 279 300 356 350 339 338 343 342 322 339 338 332 331 330 329 330 331 332 333 336 341 338 337 331 330 330 328 323 304 204 192 195 141 147 148 148 149 168
88 221 271 301 321 353 67 295 327 334 333 335 330 299 302 318 324 326 328 331 332 332 332 332 332 337 338 336 328 323 331 334 335 333 323 319 48 17 139 135 131 133 136 155
20 274 278 331 15 45 273 304 322 323 325 322 315 311 314 320 325 329 331 333 334 334 333 335 336 338 336 333 327 332 334 336 334 334 332 351 47 47 122 139 139 141 133 109
207 228 267 308 273 292 311 313 317 317 319 319 318 318 321 323 325 326 328 329 331 332 330 333 336 338 334 329 328 331 336 336 332 337 342 344 353 59 104 130 146 153 153 161
273 274 295 297 306 327 324 311 311 313 315 320 317 317 320 321 323 324 324 325 328 332 333 332 335 335 329 326 329 331 332 331 340 352 358 1 358 15 97 149 152 164 172 178
270 288 312 302 317 321 324 325 325 324 322 320 318 318 318 317 318 319 320 323 328 332 330 328 332 334 336 336 337 337 337 337 346 356 355 5 15 12 355 340 224 211 211 199
251 264 266 285 303 315 316 319 319 322 324 325 321 315 319 318 319 320 321 324 327 330 329 330 335 337 340 339 340 339 340 344 347 350 357 9 25 22 23 18 22 19 13 313
254 277 267 277 296 311 305 307 311 312 311 314 318 315 317 317 321 323 324 328 329 328 329 332 337 340 342 342 341 342 340 340 339 347 358 4 7 15 15 20 30 34 33 24
276 294 291 298 301 306 305 308 311 311 310 312 315 319 320 320 323 327 328 327 325 327 331 335 338 340 339 340 344 348 349 347 349 353 358 358 353 357 359 11 10 6 16 24
288 279 273 292 302 310 317 321 322 319 318 320 322 323 324 324 324 324 325 328 330 335 338 339 340 337 338 342 346 350 351 352 355 357 3 1 356 4 11 14 14 357 356 9
306 298 287 297 306 314 320 323 319 317 319 319 323 323 322 320 319 323 328 335 335 336 336 336 335 334 338 344 347 348 351 356 356 358 3 2 2 10 8 8 6 355 342 336
311 311 310 310 309 309 310 309 308 310 316 317 318 320 323 325 328 331 335 334 327 323 329 332 331 333 338 343 344 340 342 348 353 358 2 356 355 356 351 348 343 337 324 327
271 280 287 287 292 298 305 310 311 312 312 311 317 323 327 330 328 327 329 331 333 335 337 335 335 336 341 343 342 338 342 346 351 356 354 355 352 351 352 346 343 337 334 339
303 300 305 307 304 298 302 307 310 312 313 317 320 320 320 321 321 322 327 334 338 336 335 334 337 344 340 338 341 340 342 344 349 351 348 344 350 357 353 343 339 337 333 336
316 317 316 316 319 313 306 307 311 313 315 317 319 320 322 322 322 323 326 326 323 316 317 326 333 334 333 331 338 342 343 343 344 340 340 339 340 341 340 338 337 336 334 331
307 312 315 315 314 313 309 309 313 313 315 317 315 313 313 316 320 323 326 324 323 324 325 332 337 329 327 331 339 344 343 337 333 329 327 324 325 328 332 333 330 327 325 327
299 304 306 308 310 311 312 312 310 310 314 316 313 312 316 320 324 322 314 304 315 327 332 328 325 327 334 339 343 342 334 329 325 323 320 318 315 314 317 319 316 316 317 317
296 298 302 303 303 305 312 315 312 311 311 313 314 313 312 310 313 316 318 321 322 327 331 326 327 332 338 345 346 341 335 330 323 317 311 308 305 302 300 302 303 305 305 305
301 304 303 305 309 314 316 315 314 310 304 302 303 305 308 312 312 299 294 315 325 327 329 326 332 335 341 350 340 332 325 319 313 308 305 303 300 295 292 293 296 297 295 295
302 301 304 312 312 306 305 311 315 314 313 312 313 313 308 299 298 307 311 314 321 327 326 330 336 340 343 335 331 325 320 313 310 311 308 302 297 294 292 291 289 289 289 287
299 298 293 287 286 293 304 312 314 316 320 319 318 316 313 309 303 304 309 314 318 326 330 327 329 333 332 328 324 321 318 318 322 321 313 306 300 295 291 290 290 286 285 284
306 305 306 308 309 308 308 308 309 312 315 312 309 313 317 317 316 316 317 318 321 323 322 323 324 323 320 319 318 317 315 312 309 306 303 299 294 289 288 286 285 284 283 284